CW1238 Weather Reports


Display with metric or nautical units.
time (UTC)temp
F
wind
direction
speed
MPH
gust
MPH
rain 1hr
in
rain 24hr
in
rain mn
in
humidity
%
barometer
mb
20260506160730 43 282 1.0 4.0 0.00 0.00 0.00 50 1055.1
20260506160226 43 282 5.0 6.0 0.00 0.00 0.00 49 1055.1
20260506155725 44 310 4.0 6.0 0.00 0.00 0.00 48 1054.9
20260506155221 43 339 4.0 7.0 0.00 0.00 0.00 48 1054.9
20260506153324 44 265 5.0 7.0 0.00 0.00 0.00 48 1054.8
20260506152821 44 356 2.0 7.0 0.00 0.00 0.00 50 1054.7
20260506152318 44 293 5.0 7.0 0.00 0.00 0.00 49 1054.8
20260506151817 43 227 6.0 8.0 0.00 0.00 0.00 49 1054.8
20260506151313 43 288 5.0 7.0 0.00 0.00 0.00 50 1054.7
20260506150809 43 244 4.0 8.0 0.00 0.00 0.00 50 1054.7
20260506150306 43 218 2.0 7.0 0.00 0.00 0.00 50 1054.7
20260506145803 43 288 6.0 9.0 0.00 0.00 0.00 50 1054.6
20260506145300 44 230 0.0 3.0 0.00 0.00 0.00 50 1054.6
20260506144757 43 334 1.0 2.0 0.00 0.00 0.00 51 1054.7
20260506144254 43 344 2.0 3.0 0.00 0.00 0.00 51 1054.8
20260506143752 42 294 3.0 6.0 0.00 0.00 0.00 51 1054.6
20260506143249 42 283 3.0 4.0 0.00 0.00 0.00 50 1054.6
20260506142747 43 38 2.0 4.0 0.00 0.00 0.00 51 1054.6
20260506142245 42 277 3.0 4.0 0.00 0.00 0.00 51 1054.7
20260506141743 42 59 0.0 3.0 0.00 0.00 0.00 51 1054.7
20260506141241 44 218 1.0 3.0 0.00 0.00 0.00 51 1054.6
20260506140738 43 256 2.0 3.0 0.00 0.00 0.00 51 1054.7
20260506140235 42 261 1.0 3.0 0.00 0.00 0.00 54 1054.7
20260506135732 43 290 2.0 6.0 0.00 0.00 0.00 49 1054.6
20260506135228 42 301 2.0 3.0 0.00 0.00 0.00 52 1054.8
20260506134725 42 291 2.0 3.0 0.00 0.00 0.00 52 1054.8
20260506134222 42 302 1.0 3.0 0.00 0.00 0.00 53 1054.7
20260506133719 42 189 1.0 3.0 0.00 0.00 0.00 53 1054.8
20260506133215 41 204 2.0 2.0 0.00 0.00 0.00 53 1054.9
20260506132712 40 265 2.0 2.0 0.00 0.00 0.00 55 1054.8
20260506132209 40 278 4.0 4.0 0.00 0.00 0.00 58 1054.5
20260506131707 41 244 1.0 1.0 0.00 0.00 0.00 58 1054.6
20260506131203 40 80 1.0 3.0 0.00 0.00 0.00 58 1054.5
20260506130700 40 225 1.0 4.0 0.00 0.00 0.00 60 1054.2
20260506130157 40 209 1.0 2.0 0.00 0.00 0.00 58 1054.4
20260506125655 39 201 0.0 2.0 0.00 0.00 0.00 59 1054.4
20260506125153 39 239 1.0 2.0 0.00 0.00 0.00 60 1054.2
20260506124650 39 300 1.0 1.0 0.00 0.00 0.00 61 1054.4
20260506124148 38 266 2.0 3.0 0.00 0.00 0.00 62 1054.4
20260506123645 37 255 1.0 2.0 0.00 0.00 0.00 64 1054.4
20260506123144 37 260 2.0 3.0 0.00 0.00 0.00 63 1054.3
20260506122640 36 225 2.0 2.0 0.00 0.00 0.00 66 1054.2
20260506122138 36 269 1.0 2.0 0.00 0.00 0.00 67 1054.1
20260506121635 35 246 1.0 2.0 0.00 0.00 0.00 67 1053.9
20260506121132 35 234 1.0 2.0 0.00 0.00 0.00 67 1053.9
20260506120630 34 208 1.0 1.0 0.00 0.00 0.00 68 1054.0
20260506120127 33 207 1.0 2.0 0.00 0.00 0.00 69 1053.8
20260506115626 33 198 0.0 1.0 0.00 0.00 0.00 70 1053.8
20260506115123 33 194 0.0 0.0 0.00 0.00 0.00 72 1053.8
20260506114620 32 242 1.0 1.0 0.00 0.00 0.00 72 1053.7
20260506114118 32 204 0.0 1.0 0.00 0.00 0.00 72 1053.6
20260506113616 32 206 0.0 1.0 0.00 0.00 0.00 72 1053.4
20260506113113 31 243 1.0 1.0 0.00 0.00 0.00 75 1053.2
20260506112609 31 189 0.0 0.0 0.00 0.00 0.00 75 1053.2
20260506112107 30 209 0.0 0.0 0.00 0.00 0.00 75 1053.1
20260506111604 30 213 0.0 0.0 0.00 0.00 0.00 76 1053.0
20260506111102 30 191 0.0 0.0 0.00 0.00 0.00 76 1053.0
20260506110559 31 196 0.0 0.0 0.00 0.00 0.00 74 1053.1
20260506110056 30 202 0.0 0.0 0.00 0.00 0.00 76 1053.0
20260506105553 30 184 0.0 0.0 0.00 0.00 0.00 75 1053.1
20260506105050 30 197 0.0 0.0 0.00 0.00 0.00 74 1053.2
20260506104548 31 192 0.0 0.0 0.00 0.00 0.00 74 1053.2
20260506104045 31 167 0.0 0.0 0.00 0.00 0.00 74 1053.1
20260506103542 31 152 0.0 0.0 0.00 0.00 0.00 75 1052.9
20260506103039 31 167 0.0 0.0 0.00 0.00 0.00 74 1052.8
20260506102538 31 167 0.0 0.0 0.00 0.00 0.00 75 1053.0
20260506102035 30 179 0.0 0.0 0.00 0.00 0.00 77 1053.0
20260506101531 30 189 0.0 0.0 0.00 0.00 0.00 75 1052.8
20260506101028 31 171 0.0 0.0 0.00 0.00 0.00 75 1052.9
20260506100527 31 177 0.0 0.0 0.00 0.00 0.00 74 1052.8
20260506100024 32 184 0.0 0.0 0.00 0.00 0.00 72 1052.8
20260506095523 32 192 0.0 0.0 0.00 0.00 0.00 70 1053.0
20260506095018 33 199 0.0 1.0 0.00 0.00 0.00 70 1052.9
20260506094517 33 202 0.0 0.0 0.00 0.00 0.00 70 1052.8
20260506094014 32 213 0.0 0.0 0.00 0.00 0.00 71 1053.0
20260506093513 32 194 0.0 0.0 0.00 0.00 0.00 73 1052.8
20260506093010 31 187 0.0 0.0 0.00 0.00 0.00 73 1052.6
20260506092508 32 183 0.0 0.0 0.00 0.00 0.00 73 1052.6
20260506092004 32 189 0.0 0.0 0.00 0.00 0.00 72 1052.6
20260506091503 33 188 0.0 0.0 0.00 0.00 0.00 71 1052.6
20260506090959 34 190 0.0 0.0 0.00 0.00 0.00 69 1052.5
20260506090457 34 232 0.0 0.0 0.00 0.00 0.00 67 1052.4
20260506085953 35 219 0.0 0.0 0.00 0.00 0.00 67 1052.4
20260506085450 35 239 1.0 1.0 0.00 0.00 0.00 66 1052.4
20260506084946 35 212 0.0 1.0 0.00 0.00 0.00 67 1052.2
20260506084443 35 210 0.0 0.0 0.00 0.00 0.00 66 1052.4
20260506083939 35 190 1.0 1.0 0.00 0.00 0.00 66 1052.2
20260506083437 35 210 0.0 0.0 0.00 0.00 0.00 65 1052.4
20260506082934 35 215 0.0 0.0 0.00 0.00 0.00 65 1052.3
20260506082431 35 226 0.0 1.0 0.00 0.00 0.00 66 1052.0
20260506081927 35 233 0.0 2.0 0.00 0.00 0.00 65 1052.2
20260506081425 36 198 0.0 1.0 0.00 0.00 0.00 65 1052.3
20260506080922 36 196 0.0 1.0 0.00 0.00 0.00 65 1052.3
20260506080419 36 215 0.0 2.0 0.00 0.00 0.00 64 1052.3
20260506073403 36 194 1.0 1.0 0.00 0.00 0.00 63 1052.3
20260506072900 37 241 1.0 1.0 0.00 0.00 0.00 63 1052.3
20260506072357 37 219 1.0 2.0 0.00 0.00 0.00 63 1052.3
20260506071855 37 236 1.0 2.0 0.00 0.00 0.00 62 1052.2
20260506071353 37 216 1.0 1.0 0.00 0.00 0.00 62 1052.2
20260506070849 37 203 0.0 1.0 0.00 0.00 0.00 61 1052.2
20260506070346 38 281 1.0 2.0 0.00 0.00 0.00 60 1052.0
20260506062323 39 259 1.0 2.0 0.00 0.00 0.00 58 1051.4
20260506061819 39 318 1.0 2.0 0.00 0.00 0.00 58 1051.4
20260506061316 39 5 1.0 2.0 0.00 0.00 0.00 57 1051.4
20260506060815 39 302 2.0 2.0 0.00 0.00 0.00 57 1051.5
20260506060312 40 194 0.0 1.0 0.00 0.00 0.00 57 1051.4
20260506051243 42 75 1.0 3.0 0.00 0.00 0.00 52 1050.9
20260506050741 42 311 2.0 2.0 0.00 0.00 0.00 52 1050.9
20260506050238 42 193 1.0 4.0 0.00 0.00 0.00 53 1050.9
20260506044729 41 285 1.0 1.0 0.00 0.00 0.00 55 1050.8
20260506044226 41 190 0.0 0.0 0.00 0.00 0.00 55 1050.9
20260506043724 42 204 1.0 1.0 0.00 0.00 0.00 54 1050.9
20260506043222 42 201 0.0 1.0 0.00 0.00 0.00 53 1051.0
20260506042720 42 205 1.0 1.0 0.00 0.00 0.00 53 1051.0
20260506042218 42 204 1.0 2.0 0.00 0.00 0.00 53 1050.9
20260506041716 42 216 0.0 2.0 0.00 0.00 0.00 52 1050.9
20260506041213 42 260 0.0 1.0 0.00 0.00 0.00 52 1050.8
20260506040710 42 218 1.0 1.0 0.00 0.00 0.00 52 1050.8
20260506040208 42 197 0.0 0.0 0.00 0.00 0.00 53 1050.8
20260506035704 43 192 0.0 1.0 0.00 0.00 0.00 52 1050.9
20260506035201 43 191 0.0 1.0 0.00 0.00 0.00 51 1050.8
20260506034658 43 226 0.0 1.0 0.00 0.00 0.00 51 1050.9
20260506034155 43 200 0.0 2.0 0.00 0.00 0.00 51 1050.8
20260506033653 43 202 0.0 1.0 0.00 0.00 0.00 50 1051.0
20260506033149 44 219 0.0 1.0 0.00 0.00 0.00 49 1050.8
20260506032646 44 235 1.0 1.0 0.00 0.00 0.00 49 1050.9
20260506032143 44 182 1.0 2.0 0.00 0.00 0.00 48 1050.8
20260506031640 44 224 1.0 2.0 0.00 0.00 0.00 48 1050.8
20260506031137 44 189 1.0 2.0 0.00 0.00 0.00 48 1050.7
20260506030636 45 185 0.0 2.0 0.00 0.00 0.00 47 1050.8
20260506030132 45 201 1.0 2.0 0.00 0.00 0.00 47 1050.6
20260506025629 45 203 0.0 3.0 0.00 0.00 0.00 47 1050.4
20260506025125 45 279 2.0 2.0 0.00 0.00 0.00 47 1050.4
20260506024623 45 347 1.0 3.0 0.00 0.00 0.00 47 1050.4
20260506024119 45 292 2.0 4.0 0.00 0.00 0.00 46 1050.4
20260506023615 45 198 1.0 1.0 0.00 0.00 0.00 47 1050.3
20260506023113 46 216 1.0 1.0 0.00 0.00 0.00 47 1050.2
20260506022610 46 198 0.0 1.0 0.00 0.00 0.00 46 1050.2
20260506022107 46 160 0.0 3.0 0.00 0.00 0.00 44 1049.9
20260506021605 46 163 1.0 1.0 0.00 0.00 0.00 45 1050.1
20260506021102 47 200 1.0 1.0 0.00 0.00 0.00 44 1050.0
20260506020559 47 178 1.0 1.0 0.00 0.00 0.00 43 1050.0
20260506020057 47 240 1.0 1.0 0.00 0.00 0.00 45 1049.8
20260506015554 47 204 0.0 1.0 0.00 0.00 0.00 44 1049.9
20260506015051 47 247 1.0 2.0 0.00 0.00 0.00 43 1049.7
20260506014548 47 248 1.0 1.0 0.00 0.00 0.00 44 1049.6
20260506014043 47 217 0.0 2.0 0.00 0.00 0.00 42 1049.5
20260506013542 48 236 2.0 3.0 0.00 0.00 0.00 41 1049.4
20260506013038 48 202 1.0 2.0 0.00 0.00 0.00 41 1049.4
20260506012535 48 327 1.0 2.0 0.00 0.00 0.00 41 1049.2
20260506012032 48 306 2.0 3.0 0.00 0.00 0.00 41 1049.3
20260506011529 48 173 1.0 2.0 0.00 0.00 0.00 42 1049.2
20260506011025 48 31 2.0 2.0 0.00 0.00 0.00 41 1049.3
20260506010525 48 298 1.0 3.0 0.00 0.00 0.00 41 1049.0
20260506010021 48 263 1.0 3.0 0.00 0.00 0.00 40 1049.0
20260506005518 49 353 0.0 1.0 0.00 0.00 0.00 41 1048.9
20260506005014 49 132 1.0 1.0 0.00 0.00 0.00 40 1048.8
20260506004512 49 17 1.0 3.0 0.00 0.00 0.00 38 1049.0
20260506004008 49 187 1.0 2.0 0.00 0.00 0.00 39 1049.0
20260506003504 49 243 1.0 2.0 0.00 0.00 0.00 38 1048.8
20260506003000 49 311 2.0 7.0 0.00 0.00 0.00 38 1048.9
20260506002456 50 124 2.0 3.0 0.00 0.00 0.00 39 1048.7
20260506001952 50 256 1.0 7.0 0.00 0.00 0.00 39 1048.7
20260506001449 50 342 3.0 7.0 0.00 0.00 0.00 37 1048.7
20260506000946 50 347 2.0 3.0 0.00 0.00 0.00 40 1048.5
20260506000445 50 300 1.0 2.0 0.00 0.00 0.00 38 1048.7
20260505235941 50 173 0.0 2.0 0.00 0.00 0.00 41 1048.6
20260505235439 50 286 1.0 6.0 0.00 0.00 0.00 38 1048.5
20260505234935 50 199 1.0 4.0 0.00 0.00 0.00 38 1048.6
20260505234433 50 289 2.0 3.0 0.00 0.00 0.00 40 1048.4
20260505233929 50 329 2.0 6.0 0.00 0.00 0.00 38 1048.5
20260505233427 50 290 3.0 9.0 0.00 0.00 0.00 38 1048.8
20260505232924 50 282 1.0 2.0 0.00 0.00 0.00 40 1048.4
20260505232422 51 263 2.0 4.0 0.00 0.00 0.00 39 1048.4
20260505231919 51 355 4.0 4.0 0.00 0.00 0.00 39 1048.3
20260505231416 52 280 3.0 4.0 0.00 0.00 0.00 37 1048.5
20260505230914 51 236 2.0 3.0 0.00 0.00 0.00 39 1048.5
20260505230412 51 89 2.0 2.0 0.00 0.00 0.00 39 1048.6
20260505225908 51 254 2.0 3.0 0.00 0.00 0.00 40 1048.5
20260505225406 51 275 3.0 6.0 0.00 0.00 0.00 40 1048.4
20260505224905 51 306 3.0 4.0 0.00 0.00 0.00 40 1048.4
20260505224403 51 17 3.0 7.0 0.00 0.00 0.00 40 1048.8
20260505223900 51 28 2.0 4.0 0.00 0.00 0.00 39 1048.5
20260505223357 52 52 1.0 2.0 0.00 0.00 0.00 38 1048.5
20260505222853 51 315 2.0 4.0 0.00 0.00 0.00 39 1048.4
20260505222349 51 251 1.0 4.0 0.00 0.00 0.00 38 1048.4
20260505221846 52 330 2.0 6.0 0.00 0.00 0.00 41 1048.5
20260505221343 51 301 2.0 7.0 0.00 0.00 0.00 39 1048.6
20260505220840 52 316 3.0 6.0 0.00 0.00 0.00 39 1048.7
20260505220337 52 307 3.0 7.0 0.00 0.00 0.00 37 1048.7
20260505215835 51 284 1.0 4.0 0.00 0.00 0.00 41 1048.8
20260505215333 51 25 4.0 6.0 0.00 0.00 0.00 38 1048.7
20260505214831 51 317 3.0 6.0 0.00 0.00 0.00 39 1048.6
20260505214328 51 285 2.0 6.0 0.00 0.00 0.00 40 1048.6
20260505213825 51 309 2.0 4.0 0.00 0.00 0.00 39 1048.4
20260505213323 51 303 3.0 6.0 0.00 0.00 0.00 39 1048.6
20260505212818 51 297 2.0 4.0 0.00 0.00 0.00 39 1048.3
20260505212316 51 330 2.0 4.0 0.00 0.00 0.00 40 1048.5
20260505211812 51 343 3.0 4.0 0.00 0.00 0.00 39 1048.5
20260505211310 51 325 1.0 4.0 0.00 0.00 0.00 41 1048.7
20260505210806 51 299 2.0 6.0 0.00 0.00 0.00 38 1048.5
20260505210303 51 34 3.0 6.0 0.00 0.00 0.00 40 1048.3
20260505205800 51 197 1.0 4.0 0.00 0.00 0.00 41 1048.5
20260505205258 51 295 2.0 3.0 0.00 0.00 0.00 41 1048.6
20260505204754 51 184 1.0 2.0 0.00 0.00 0.00 43 1048.7
20260505204252 51 300 3.0 4.0 0.00 0.00 0.00 41 1048.7
20260505203749 51 280 5.0 6.0 0.00 0.00 0.00 40 1048.7
20260505203246 51 285 2.0 4.0 0.00 0.00 0.00 42 1048.8
20260505202742 51 293 3.0 4.0 0.00 0.00 0.00 41 1048.7
20260505202238 51 216 1.0 9.0 0.00 0.00 0.00 40 1048.8
20260505201735 51 278 2.0 6.0 0.00 0.00 0.00 40 1048.7
20260505201233 51 290 3.0 4.0 0.00 0.00 0.00 38 1048.8
20260505200731 51 238 1.0 3.0 0.00 0.00 0.00 40 1048.7
20260505200228 51 338 3.0 4.0 0.00 0.00 0.00 40 1048.9
20260505195723 51 223 1.0 3.0 0.00 0.00 0.00 39 1048.8
20260505195221 53 292 4.0 6.0 0.00 0.00 0.00 39 1048.9
20260505194718 52 309 3.0 4.0 0.00 0.00 0.00 40 1048.8
20260505194214 52 251 1.0 4.0 0.00 0.00 0.00 40 1048.8
20260505193710 52 41 1.0 3.0 0.00 0.00 0.00 41 1048.8
20260505193207 51 275 4.0 7.0 0.00 0.00 0.00 41 1048.9
20260505192706 51 236 2.0 3.0 0.00 0.00 0.00 42 1049.0
20260505192203 51 212 2.0 3.0 0.00 0.00 0.00 42 1049.2
20260505191702 51 221 1.0 6.0 0.00 0.00 0.00 42 1049.3
20260505191159 50 0 1.0 3.0 0.00 0.00 0.00 42 1049.2
20260505190655 50 293 3.0 4.0 0.00 0.00 0.00 42 1049.2
20260505190155 51 292 4.0 8.0 0.00 0.00 0.00 43 1049.2
20260505185652 50 318 3.0 7.0 0.00 0.00 0.00 41 1049.0
20260505185148 50 260 5.0 7.0 0.00 0.00 0.00 42 1049.2
20260505184645 51 276 4.0 4.0 0.00 0.00 0.00 42 1049.2
20260505184142 52 225 4.0 7.0 0.00 0.00 0.00 42 1049.0
20260505183639 51 244 3.0 6.0 0.00 0.00 0.00 42 1048.9
20260505183137 51 259 4.0 7.0 0.00 0.00 0.00 45 1049.0
20260505182632 50 275 4.0 6.0 0.00 0.00 0.00 43 1049.4
20260505182129 50 224 4.0 7.0 0.00 0.00 0.00 44 1049.2
20260505181626 50 227 1.0 3.0 0.00 0.00 0.00 42 1049.5
20260505181123 50 293 3.0 7.0 0.00 0.00 0.00 41 1049.5
20260505180619 50 314 4.0 6.0 0.00 0.00 0.00 42 1049.4
20260505180117 50 262 2.0 8.0 0.00 0.00 0.00 42 1049.5
20260505175613 49 255 2.0 2.0 0.00 0.00 0.00 42 1049.5
20260505175109 49 222 5.0 6.0 0.00 0.00 0.00 41 1049.4
20260505174606 50 294 2.0 3.0 0.00 0.00 0.00 44 1049.3
20260505174102 51 181 2.0 6.0 0.00 0.00 0.00 41 1049.4
20260505173554 50 195 1.0 4.0 0.00 0.00 0.00 38 1049.5
20260505173051 50 319 4.0 9.0 0.00 0.00 0.00 42 1049.5
20260505172548 50 303 5.0 7.0 0.00 0.00 0.00 40 1049.5
20260505172044 50 233 1.0 3.0 0.00 0.00 0.00 48 1049.4
20260505171545 49 276 3.0 6.0 0.00 0.00 0.00 42 1049.5
20260505171042 49 298 1.0 2.0 0.00 0.00 0.00 45 1049.3
20260505170539 49 197 0.0 3.0 0.00 0.00 0.00 44 1049.4
20260505170035 49 239 2.0 7.0 0.00 0.00 0.00 45 1049.5
20260505165530 49 339 4.0 6.0 0.00 0.00 0.00 43 1049.5
20260505165026 48 211 2.0 10.0 0.00 0.00 0.00 45 1049.4
20260505164522 48 270 2.0 4.0 0.00 0.00 0.00 44 1049.6
20260505164020 48 299 5.0 7.0 0.00 0.00 0.00 44 1049.5
20260505163519 48 115 2.0 7.0 0.00 0.00 0.00 45 1049.4
20260505163015 48 171 1.0 3.0 0.00 0.00 0.00 49 1049.6
20260505162508 49 308 1.0 9.0 0.00 0.00 0.00 44 1049.3
20260505162005 48 314 2.0 4.0 0.00 0.00 0.00 44 1049.4
20260505161456 49 180 4.0 4.0 0.00 0.00 0.00 45 1049.5